| time (UTC) | temp C | wind direction | speed KPH | gust KPH | rain 1hr cm | rain 24hr cm | rain mn cm | humidity % | barometer mb |
| 20260504220650 | 26 | 159 | 4.8 | 14.5 | 0.00 | 0.00 | 0.00 | 62 | 1009.5 |
| 20260504220148 | 26 | 179 | 16.1 | 20.9 | 0.00 | 0.00 | 0.00 | 62 | 1009.8 |
| 20260504215644 | 26 | 170 | 8.0 | 17.7 | 0.00 | 0.00 | 0.00 | 61 | 1009.8 |
| 20260504215142 | 26 | 158 | 11.3 | 16.1 | 0.00 | 0.00 | 0.00 | 61 | 1009.7 |
| 20260504214637 | 27 | 181 | 4.8 | 11.3 | 0.00 | 0.00 | 0.00 | 61 | 1009.8 |
| 20260504214134 | 27 | 153 | 12.9 | 14.5 | 0.00 | 0.00 | 0.00 | 61 | 1010.1 |
| 20260504213630 | 27 | 160 | 4.8 | 9.7 | 0.00 | 0.00 | 0.00 | 60 | 1009.9 |
| 20260504213127 | 27 | 175 | 3.2 | 16.1 | 0.00 | 0.00 | 0.00 | 59 | 1010.0 |
| 20260504212624 | 27 | 183 | 9.7 | 16.1 | 0.00 | 0.00 | 0.00 | 59 | 1010.3 |
| 20260504212121 | 27 | 160 | 12.9 | 17.7 | 0.00 | 0.00 | 0.00 | 58 | 1010.1 |
| 20260504211618 | 27 | 159 | 4.8 | 14.5 | 0.00 | 0.00 | 0.00 | 58 | 1010.0 |
| 20260504211114 | 27 | 218 | 1.6 | 14.5 | 0.00 | 0.00 | 0.00 | 57 | 1010.3 |
| 20260504210612 | 27 | 181 | 3.2 | 8.0 | 0.00 | 0.00 | 0.00 | 57 | 1010.1 |
| 20260504210108 | 28 | 227 | 3.2 | 11.3 | 0.00 | 0.00 | 0.00 | 57 | 1010.2 |
| 20260504205606 | 27 | 199 | 6.4 | 14.5 | 0.00 | 0.00 | 0.00 | 57 | 1010.3 |
| 20260504205104 | 28 | 219 | 3.2 | 8.0 | 0.00 | 0.00 | 0.00 | 57 | 1010.3 |
| 20260504204601 | 28 | 168 | 8.0 | 12.9 | 0.00 | 0.00 | 0.00 | 55 | 1010.5 |
| 20260504204100 | 28 | 149 | 14.5 | 14.5 | 0.00 | 0.00 | 0.00 | 55 | 1010.7 |
| 20260504203559 | 27 | 136 | 3.2 | 9.7 | 0.00 | 0.00 | 0.00 | 57 | 1010.7 |
| 20260504203056 | 27 | 174 | 6.4 | 11.3 | 0.00 | 0.00 | 0.00 | 57 | 1010.6 |
| 20260504202550 | 28 | 117 | 3.2 | 8.0 | 0.00 | 0.00 | 0.00 | 56 | 1010.7 |
| 20260504202048 | 28 | 162 | 4.8 | 12.9 | 0.00 | 0.00 | 0.00 | 55 | 1010.8 |
| 20260504201545 | 28 | 178 | 3.2 | 12.9 | 0.00 | 0.00 | 0.00 | 55 | 1010.9 |
| 20260504201043 | 27 | 185 | 6.4 | 9.7 | 0.00 | 0.00 | 0.00 | 57 | 1011.3 |
| 20260504200539 | 28 | 155 | 6.4 | 14.5 | 0.00 | 0.00 | 0.00 | 56 | 1011.4 |
| 20260504200036 | 28 | 153 | 6.4 | 11.3 | 0.00 | 0.00 | 0.00 | 56 | 1011.4 |
| 20260504195532 | 28 | 185 | 3.2 | 9.7 | 0.00 | 0.00 | 0.00 | 56 | 1011.4 |
| 20260504195028 | 28 | 103 | 3.2 | 9.7 | 0.00 | 0.00 | 0.00 | 56 | 1011.5 |
| 20260504194525 | 28 | 137 | 4.8 | 11.3 | 0.00 | 0.00 | 0.00 | 55 | 1011.4 |
| 20260504194020 | 27 | 325 | 1.6 | 8.0 | 0.00 | 0.00 | 0.00 | 56 | 1011.4 |
| 20260504193517 | 27 | 218 | 3.2 | 6.4 | 0.00 | 0.00 | 0.00 | 55 | 1011.8 |
| 20260504193017 | 28 | 168 | 14.5 | 17.7 | 0.00 | 0.00 | 0.00 | 55 | 1011.7 |
| 20260504192514 | 29 | 137 | 0.0 | 8.0 | 0.00 | 0.00 | 0.00 | 54 | 1011.7 |
| 20260504192012 | 28 | 149 | 3.2 | 9.7 | 0.00 | 0.00 | 0.00 | 57 | 1011.8 |
| 20260504191510 | 27 | 163 | 4.8 | 14.5 | 0.00 | 0.00 | 0.00 | 56 | 1011.7 |
| 20260504191005 | 27 | 217 | 0.0 | 8.0 | 0.00 | 0.00 | 0.00 | 56 | 1012.0 |
| 20260504190501 | 27 | 140 | 6.4 | 14.5 | 0.00 | 0.00 | 0.00 | 55 | 1012.0 |
| 20260504185957 | 27 | 183 | 11.3 | 14.5 | 0.00 | 0.00 | 0.00 | 55 | 1011.9 |
| 20260504185455 | 28 | 214 | 6.4 | 14.5 | 0.00 | 0.00 | 0.00 | 55 | 1012.3 |
| 20260504184951 | 28 | 190 | 1.6 | 12.9 | 0.00 | 0.00 | 0.00 | 54 | 1012.1 |
| 20260504184447 | 28 | 204 | 11.3 | 14.5 | 0.00 | 0.00 | 0.00 | 54 | 1012.2 |
| 20260504183943 | 28 | 223 | 3.2 | 9.7 | 0.00 | 0.00 | 0.00 | 57 | 1012.2 |
| 20260504183440 | 27 | 166 | 6.4 | 8.0 | 0.00 | 0.00 | 0.00 | 56 | 1012.4 |
| 20260504182938 | 27 | 194 | 1.6 | 14.5 | 0.00 | 0.00 | 0.00 | 58 | 1012.3 |
| 20260504182434 | 27 | 184 | 6.4 | 12.9 | 0.00 | 0.00 | 0.00 | 58 | 1012.5 |
| 20260504181932 | 26 | 173 | 4.8 | 16.1 | 0.00 | 0.00 | 0.00 | 58 | 1012.1 |
| 20260504181429 | 26 | 164 | 6.4 | 12.9 | 0.00 | 0.00 | 0.00 | 59 | 1012.4 |
| 20260504180928 | 27 | 149 | 3.2 | 16.1 | 0.00 | 0.00 | 0.00 | 60 | 1012.7 |
| 20260504180426 | 27 | 162 | 11.3 | 14.5 | 0.00 | 0.00 | 0.00 | 57 | 1012.9 |
| 20260504175924 | 26 | 171 | 6.4 | 16.1 | 0.00 | 0.00 | 0.00 | 59 | 1012.7 |
| 20260504175421 | 26 | 180 | 4.8 | 11.3 | 0.00 | 0.00 | 0.00 | 59 | 1012.8 |
| 20260504174918 | 27 | 153 | 6.4 | 11.3 | 0.00 | 0.00 | 0.00 | 58 | 1012.7 |
| 20260504174416 | 27 | 269 | 9.7 | 14.5 | 0.00 | 0.00 | 0.00 | 55 | 1012.9 |
| 20260504173913 | 27 | 200 | 6.4 | 12.9 | 0.00 | 0.00 | 0.00 | 56 | 1013.0 |
| 20260504173409 | 26 | 158 | 4.8 | 17.7 | 0.00 | 0.00 | 0.00 | 57 | 1013.1 |
| 20260504172907 | 26 | 215 | 11.3 | 12.9 | 0.00 | 0.00 | 0.00 | 56 | 1013.1 |
| 20260504172403 | 27 | 164 | 6.4 | 14.5 | 0.00 | 0.00 | 0.00 | 55 | 1013.0 |
| 20260504171859 | 27 | 278 | 6.4 | 12.9 | 0.00 | 0.00 | 0.00 | 56 | 1013.2 |
| 20260504171356 | 26 | 234 | 1.6 | 14.5 | 0.00 | 0.00 | 0.00 | 59 | 1013.6 |
| 20260504170853 | 26 | 217 | 12.9 | 22.5 | 0.00 | 0.00 | 0.00 | 58 | 1013.6 |
| 20260504170350 | 26 | 149 | 4.8 | 19.3 | 0.00 | 0.00 | 0.00 | 58 | 1013.4 |
| 20260504160309 | 24 | 195 | 3.2 | 16.1 | 0.00 | 0.00 | 0.00 | 64 | 1014.1 |
| 20260504150734 | 24 | 189 | 6.4 | 12.9 | 0.00 | 0.00 | 0.00 | 64 | 1014.3 |
| 20260504150230 | 23 | 165 | 9.7 | 9.7 | 0.00 | 0.00 | 0.00 | 64 | 1014.4 |
| 20260504141159 | 22 | 209 | 3.2 | 11.3 | 0.00 | 0.00 | 0.00 | 64 | 1014.3 |
| 20260504140656 | 22 | 145 | 3.2 | 6.4 | 0.00 | 0.00 | 0.00 | 64 | 1014.3 |
| 20260504140152 | 22 | 138 | 4.8 | 8.0 | 0.00 | 0.00 | 0.00 | 64 | 1014.4 |
| 20260504130620 | 19 | 235 | 0.0 | 6.4 | 0.00 | 0.00 | 0.00 | 73 | 1014.3 |
| 20260504130117 | 19 | 159 | 4.8 | 6.4 | 0.00 | 0.00 | 0.00 | 71 | 1014.2 |
| 20260504110508 | 15 | 238 | 3.2 | 3.2 | 0.00 | 0.00 | 0.00 | 85 | 1013.7 |
| 20260504100431 | 15 | 300 | 1.6 | 3.2 | 0.00 | 0.00 | 0.00 | 86 | 1014.3 |
| 20260504081824 | 16 | 221 | 3.2 | 4.8 | 0.00 | 0.00 | 0.00 | 79 | 1014.6 |
| 20260504081320 | 16 | 220 | 3.2 | 3.2 | 0.00 | 0.00 | 0.00 | 80 | 1014.6 |
| 20260504080816 | 16 | 220 | 1.6 | 3.2 | 0.00 | 0.00 | 0.00 | 80 | 1014.8 |
| 20260504080314 | 16 | 259 | 0.0 | 3.2 | 0.00 | 0.00 | 0.00 | 79 | 1014.9 |
| 20260504070235 | 17 | 229 | 0.0 | 4.8 | 0.00 | 0.00 | 0.00 | 73 | 1016.1 |
| 20260504060155 | 17 | 224 | 3.2 | 4.8 | 0.00 | 0.00 | 0.00 | 72 | 1016.5 |
| 20260504050623 | 17 | 243 | 1.6 | 4.8 | 0.00 | 0.00 | 0.00 | 70 | 1016.7 |
| 20260504050120 | 17 | 208 | 3.2 | 4.8 | 0.00 | 0.00 | 0.00 | 69 | 1016.8 |
| 20260504045617 | 17 | 212 | 0.0 | 4.8 | 0.00 | 0.00 | 0.00 | 68 | 1016.6 |
| 20260504045112 | 18 | 230 | 0.0 | 3.2 | 0.00 | 0.00 | 0.00 | 68 | 1016.8 |
| 20260504044610 | 18 | 238 | 3.2 | 4.8 | 0.00 | 0.00 | 0.00 | 67 | 1016.8 |
| 20260504044107 | 18 | 169 | 3.2 | 6.4 | 0.00 | 0.00 | 0.00 | 68 | 1016.9 |
| 20260504043604 | 18 | 227 | 1.6 | 6.4 | 0.00 | 0.00 | 0.00 | 67 | 1017.1 |
| 20260504043101 | 18 | 212 | 4.8 | 4.8 | 0.00 | 0.00 | 0.00 | 67 | 1016.9 |
| 20260504042558 | 18 | 193 | 3.2 | 4.8 | 0.00 | 0.00 | 0.00 | 66 | 1016.9 |
| 20260504042055 | 18 | 246 | 0.0 | 4.8 | 0.00 | 0.00 | 0.00 | 65 | 1017.0 |
| 20260504041550 | 18 | 214 | 1.6 | 6.4 | 0.00 | 0.00 | 0.00 | 65 | 1016.9 |
| 20260504041047 | 18 | 186 | 0.0 | 4.8 | 0.00 | 0.00 | 0.00 | 64 | 1016.9 |
| 20260504040545 | 18 | 230 | 0.0 | 6.4 | 0.00 | 0.00 | 0.00 | 64 | 1017.1 |
| 20260504040042 | 19 | 195 | 1.6 | 4.8 | 0.00 | 0.00 | 0.00 | 63 | 1016.9 |
| 20260504035538 | 18 | 183 | 1.6 | 4.8 | 0.00 | 0.00 | 0.00 | 63 | 1016.9 |
| 20260504035035 | 19 | 214 | 3.2 | 8.0 | 0.00 | 0.00 | 0.00 | 63 | 1016.9 |
| 20260504034533 | 19 | 194 | 3.2 | 4.8 | 0.00 | 0.00 | 0.00 | 62 | 1017.0 |
| 20260504034029 | 19 | 192 | 6.4 | 8.0 | 0.00 | 0.00 | 0.00 | 62 | 1017.1 |
| 20260504033528 | 19 | 224 | 1.6 | 6.4 | 0.00 | 0.00 | 0.00 | 61 | 1017.1 |
| 20260504033025 | 19 | 169 | 0.0 | 6.4 | 0.00 | 0.00 | 0.00 | 62 | 1017.1 |
| 20260504032521 | 19 | 333 | 3.2 | 4.8 | 0.00 | 0.00 | 0.00 | 61 | 1017.1 |
| 20260504032018 | 20 | 215 | 3.2 | 4.8 | 0.00 | 0.00 | 0.00 | 60 | 1016.9 |
| 20260504031515 | 20 | 157 | 4.8 | 6.4 | 0.00 | 0.00 | 0.00 | 60 | 1016.9 |
| 20260504031010 | 20 | 204 | 1.6 | 6.4 | 0.00 | 0.00 | 0.00 | 59 | 1017.0 |
| 20260504030508 | 20 | 194 | 3.2 | 4.8 | 0.00 | 0.00 | 0.00 | 60 | 1016.8 |
| 20260504030004 | 20 | 222 | 1.6 | 4.8 | 0.00 | 0.00 | 0.00 | 59 | 1016.8 |
| 20260504025502 | 20 | 206 | 1.6 | 6.4 | 0.00 | 0.00 | 0.00 | 58 | 1016.8 |
| 20260504024958 | 20 | 171 | 1.6 | 6.4 | 0.00 | 0.00 | 0.00 | 58 | 1016.7 |
| 20260504024455 | 20 | 179 | 3.2 | 6.4 | 0.00 | 0.00 | 0.00 | 58 | 1016.6 |
| 20260504023953 | 20 | 246 | 0.0 | 4.8 | 0.00 | 0.00 | 0.00 | 57 | 1016.5 |
| 20260504023449 | 20 | 140 | 1.6 | 8.0 | 0.00 | 0.00 | 0.00 | 57 | 1016.4 |
| 20260504022944 | 20 | 154 | 3.2 | 9.7 | 0.00 | 0.00 | 0.00 | 56 | 1016.3 |
| 20260504022441 | 20 | 126 | 1.6 | 6.4 | 0.00 | 0.00 | 0.00 | 55 | 1016.4 |
| 20260504021938 | 20 | 178 | 3.2 | 6.4 | 0.00 | 0.00 | 0.00 | 56 | 1016.4 |
| 20260504021435 | 21 | 186 | 4.8 | 8.0 | 0.00 | 0.00 | 0.00 | 55 | 1016.5 |
| 20260504020932 | 21 | 157 | 3.2 | 6.4 | 0.00 | 0.00 | 0.00 | 55 | 1016.4 |
| 20260504020429 | 21 | 203 | 0.0 | 6.4 | 0.00 | 0.00 | 0.00 | 55 | 1016.5 |
| 20260504015926 | 21 | 229 | 3.2 | 8.0 | 0.00 | 0.00 | 0.00 | 54 | 1016.4 |
| 20260504015421 | 21 | 164 | 6.4 | 9.7 | 0.00 | 0.00 | 0.00 | 53 | 1016.2 |
| 20260504014918 | 21 | 175 | 3.2 | 6.4 | 0.00 | 0.00 | 0.00 | 53 | 1016.3 |
| 20260504014414 | 21 | 159 | 1.6 | 6.4 | 0.00 | 0.00 | 0.00 | 53 | 1016.1 |
| 20260504013911 | 22 | 178 | 4.8 | 8.0 | 0.00 | 0.00 | 0.00 | 52 | 1016.2 |
| 20260504013409 | 22 | 200 | 1.6 | 6.4 | 0.00 | 0.00 | 0.00 | 53 | 1016.1 |
| 20260504012905 | 22 | 187 | 8.0 | 11.3 | 0.00 | 0.00 | 0.00 | 52 | 1016.1 |
| 20260504012403 | 22 | 166 | 4.8 | 8.0 | 0.00 | 0.00 | 0.00 | 51 | 1016.1 |
| 20260504011900 | 22 | 209 | 6.4 | 12.9 | 0.00 | 0.00 | 0.00 | 51 | 1016.3 |
| 20260504011357 | 22 | 199 | 6.4 | 11.3 | 0.00 | 0.00 | 0.00 | 50 | 1015.8 |
| 20260504010853 | 22 | 171 | 6.4 | 12.9 | 0.00 | 0.00 | 0.00 | 49 | 1015.8 |
| 20260504010348 | 22 | 125 | 6.4 | 9.7 | 0.00 | 0.00 | 0.00 | 49 | 1016.0 |
| 20260504005839 | 23 | 158 | 4.8 | 12.9 | 0.00 | 0.00 | 0.00 | 49 | 1016.0 |
| 20260504005336 | 23 | 194 | 1.6 | 6.4 | 0.00 | 0.00 | 0.00 | 49 | 1016.2 |
| 20260504004834 | 23 | 177 | 6.4 | 6.4 | 0.00 | 0.00 | 0.00 | 48 | 1016.0 |
| 20260504004332 | 23 | 175 | 3.2 | 12.9 | 0.00 | 0.00 | 0.00 | 47 | 1015.9 |
| 20260504003827 | 23 | 168 | 4.8 | 9.7 | 0.00 | 0.00 | 0.00 | 47 | 1015.9 |
| 20260504003325 | 23 | 171 | 3.2 | 8.0 | 0.00 | 0.00 | 0.00 | 46 | 1016.0 |
| 20260504002821 | 23 | 230 | 0.0 | 6.4 | 0.00 | 0.00 | 0.00 | 46 | 1016.0 |
| 20260504002318 | 24 | 139 | 4.8 | 4.8 | 0.00 | 0.00 | 0.00 | 45 | 1016.0 |
| 20260504001816 | 24 | 168 | 3.2 | 9.7 | 0.00 | 0.00 | 0.00 | 44 | 1015.9 |
| 20260504001313 | 25 | 200 | 3.2 | 6.4 | 0.00 | 0.00 | 0.00 | 43 | 1015.9 |
| 20260504000810 | 25 | 153 | 3.2 | 6.4 | 0.00 | 0.00 | 0.00 | 41 | 1015.9 |
| 20260504000307 | 25 | 195 | 1.6 | 8.0 | 0.00 | 0.00 | 0.00 | 41 | 1015.9 |
| 20260503235804 | 25 | 183 | 6.4 | 9.7 | 0.00 | 0.00 | 0.00 | 41 | 1016.3 |
| 20260503235301 | 25 | 120 | 3.2 | 8.0 | 0.00 | 0.00 | 0.00 | 42 | 1016.2 |
| 20260503234759 | 25 | 118 | 9.7 | 9.7 | 0.00 | 0.00 | 0.00 | 39 | 1016.1 |
| 20260503234256 | 26 | 160 | 3.2 | 9.7 | 0.00 | 0.00 | 0.00 | 36 | 1016.2 |
| 20260503233753 | 26 | 159 | 3.2 | 6.4 | 0.00 | 0.00 | 0.00 | 37 | 1016.0 |
| 20260503233250 | 26 | 163 | 3.2 | 9.7 | 0.00 | 0.00 | 0.00 | 36 | 1016.1 |
| 20260503232747 | 26 | 156 | 1.6 | 6.4 | 0.00 | 0.00 | 0.00 | 36 | 1016.1 |
| 20260503232244 | 26 | 191 | 8.0 | 9.7 | 0.00 | 0.00 | 0.00 | 36 | 1016.1 |
| 20260503231742 | 26 | 196 | 1.6 | 6.4 | 0.00 | 0.00 | 0.00 | 35 | 1016.4 |
| 20260503231239 | 26 | 93 | 3.2 | 8.0 | 0.00 | 0.00 | 0.00 | 35 | 1016.3 |
| 20260503230735 | 26 | 121 | 6.4 | 16.1 | 0.00 | 0.00 | 0.00 | 36 | 1016.3 |
| 20260503230232 | 26 | 145 | 16.1 | 20.9 | 0.00 | 0.00 | 0.00 | 35 | 1016.2 |
| 20260503225729 | 26 | 203 | 4.8 | 17.7 | 0.00 | 0.00 | 0.00 | 36 | 1016.3 |
| 20260503225229 | 26 | 164 | 4.8 | 11.3 | 0.00 | 0.00 | 0.00 | 35 | 1016.3 |
| 20260503224726 | 27 | 158 | 6.4 | 14.5 | 0.00 | 0.00 | 0.00 | 36 | 1016.5 |
| 20260503224224 | 27 | 177 | 3.2 | 8.0 | 0.00 | 0.00 | 0.00 | 37 | 1016.6 |
| 20260503223721 | 27 | 196 | 6.4 | 8.0 | 0.00 | 0.00 | 0.00 | 35 | 1016.6 |
| 20260503223219 | 27 | 180 | 8.0 | 8.0 | 0.00 | 0.00 | 0.00 | 35 | 1016.6 |
| 20260503222715 | 26 | 137 | 0.0 | 6.4 | 0.00 | 0.00 | 0.00 | 37 | 1016.7 |
| 20260503222214 | 26 | 257 | 4.8 | 9.7 | 0.00 | 0.00 | 0.00 | 36 | 1016.6 |
| 20260503221711 | 26 | 151 | 6.4 | 9.7 | 0.00 | 0.00 | 0.00 | 37 | 1016.8 |
| 20260503221209 | 26 | 157 | 8.0 | 8.0 | 0.00 | 0.00 | 0.00 | 35 | 1016.9 |